Date Time,Air Temp,Sky Temp,Clarity,Light Level,Rain Sensor,Readings
2010-12-29 00:00:32,15.9,5.9,10.1,0.0,2.2,111
2010-12-29 00:05:32,15.9,5.6,10.2,0.0,2.3,112
2010-12-29 00:10:32,16.0,5.8,10.2,0.0,2.3,111
2010-12-29 00:15:32,16.1,5.4,10.8,0.0,2.3,112
2010-12-29 00:20:32,16.1,5.3,10.8,0.0,2.3,112
2010-12-29 00:25:32,16.1,5.6,10.4,0.0,2.3,111
2010-12-29 00:30:32,16.1,5.7,10.3,0.0,2.3,112
2010-12-29 00:35:32,16.1,5.9,10.1,0.0,2.3,112
2010-12-29 00:40:32,16.1,6.1,10.0,0.0,2.3,111
2010-12-29 00:45:32,16.1,6.0,10.1,0.0,2.3,112
2010-12-29 00:50:32,16.1,5.7,10.5,0.0,2.3,112
2010-12-29 00:55:32,16.1,5.7,10.4,0.0,2.3,112
2010-12-29 01:00:32,16.1,5.9,10.2,0.0,2.3,111
2010-12-29 01:05:32,16.1,6.2,9.9,0.0,2.3,112
2010-12-29 01:10:32,16.1,6.0,10.1,0.0,2.3,111
2010-12-29 01:15:32,16.1,6.0,10.1,0.0,2.3,111
2010-12-29 01:20:32,16.1,6.3,9.8,0.0,2.3,112
2010-12-29 01:25:32,16.2,6.2,10.0,0.0,2.3,112
2010-12-29 01:30:32,16.2,6.1,10.1,0.0,2.3,111
2010-12-29 01:35:32,16.3,6.5,9.8,0.0,2.3,111
2010-12-29 01:40:32,16.4,6.3,10.0,0.0,2.3,111
2010-12-29 01:45:32,16.1,6.2,9.9,0.0,2.3,112
2010-12-29 01:50:32,16.4,4.4,12.0,0.0,2.3,111
2010-12-29 01:55:32,16.3,5.4,10.9,0.0,2.3,112
2010-12-29 02:00:32,16.3,6.0,10.3,0.0,2.3,111
2010-12-29 02:05:32,16.2,5.8,10.4,0.0,2.3,112
2010-12-29 02:10:32,16.1,5.7,10.4,0.0,2.3,111
2010-12-29 02:15:32,16.1,5.2,10.9,0.0,2.3,112
2010-12-29 02:20:32,16.0,5.4,10.7,0.0,2.3,112
2010-12-29 02:25:32,16.0,6.5,9.5,0.0,2.3,111
2010-12-29 02:30:32,16.0,6.9,9.1,0.0,2.3,112
2010-12-29 02:35:32,16.0,6.7,9.3,0.0,2.4,111
2010-12-29 02:40:32,16.1,6.5,9.5,0.0,2.4,111
2010-12-29 02:45:32,16.0,6.4,9.6,0.0,2.4,112
2010-12-29 02:50:32,15.9,6.2,9.7,0.0,2.4,111
2010-12-29 02:55:32,15.9,6.0,9.9,0.0,2.3,111
2010-12-29 03:00:32,16.0,6.2,9.8,0.0,2.3,112
2010-12-29 03:05:32,16.1,6.3,9.8,0.0,2.3,110
2010-12-29 03:10:32,16.1,6.2,10.0,0.0,2.3,112
2010-12-29 03:15:32,16.1,6.2,9.9,0.0,2.3,112
2010-12-29 03:20:32,16.1,6.1,10.1,0.0,2.3,111
2010-12-29 03:25:32,16.2,6.2,9.9,0.0,2.3,111
2010-12-29 03:30:32,16.2,6.1,10.0,0.0,2.3,112
2010-12-29 03:35:32,16.2,6.3,9.9,0.0,2.3,111
2010-12-29 03:40:32,16.3,6.1,10.1,0.0,2.3,112
2010-12-29 03:45:32,16.2,5.9,10.4,0.0,2.3,111
2010-12-29 03:50:32,16.2,6.0,10.2,0.0,2.3,112
2010-12-29 03:55:32,16.3,6.4,9.9,0.0,2.3,111
2010-12-29 04:00:32,16.3,6.5,9.8,0.0,2.3,111
2010-12-29 04:05:32,16.3,5.9,10.4,0.0,2.2,111
2010-12-29 04:10:32,16.3,6.2,10.0,0.0,2.3,112
2010-12-29 04:15:32,16.3,6.3,10.0,0.0,2.2,111
2010-12-29 04:20:32,16.3,6.4,9.9,0.0,2.3,111
2010-12-29 04:25:32,16.0,6.1,9.9,0.0,2.2,111
2010-12-29 04:30:32,16.3,6.0,10.3,0.0,2.3,112
2010-12-29 04:35:32,16.2,5.6,10.6,0.0,2.6,111
2010-12-29 04:40:32,16.1,6.0,10.1,0.0,2.4,112
2010-12-29 04:45:32,16.0,6.3,9.7,0.0,2.3,111
2010-12-29 04:50:32,16.0,6.2,9.8,0.0,3.1,111
2010-12-29 04:55:32,16.0,6.5,9.5,0.0,2.7,112
2010-12-29 05:00:32,16.0,6.5,9.6,0.0,16.4,111
2010-12-29 05:05:32,16.1,10.8,5.3,0.0,28.0,112
2010-12-29 05:10:32,16.3,14.9,1.4,0.0,25.4,111
2010-12-29 05:15:32,16.5,13.9,2.5,0.0,21.6,112
2010-12-29 05:20:32,16.4,13.9,2.5,0.0,6.0,111
2010-12-29 05:25:32,16.2,13.3,3.0,0.0,2.8,111
2010-12-29 05:30:32,16.1,13.4,2.6,0.0,3.1,112
2010-12-29 05:35:32,16.0,13.5,2.5,0.0,13.0,111
2010-12-29 05:40:32,15.7,13.9,1.8,0.0,4.1,111
2010-12-29 05:45:32,15.8,12.9,2.9,0.0,2.6,112
2010-12-29 05:50:32,15.8,11.8,4.1,0.0,10.1,111
2010-12-29 05:55:32,15.9,12.1,3.8,0.0,13.5,112
2010-12-29 06:00:32,15.9,12.1,3.8,0.0,6.9,111
2010-12-29 06:05:32,15.8,11.9,3.9,0.0,2.5,112
2010-12-29 06:10:32,15.8,11.9,3.9,0.0,2.4,111
2010-12-29 06:15:32,15.8,11.3,4.5,0.0,3.1,112
2010-12-29 06:20:32,15.8,11.9,3.9,0.0,3.0,111
2010-12-29 06:25:32,15.8,12.4,3.4,0.0,2.4,111
2010-12-29 06:30:32,15.8,12.5,3.3,0.0,2.3,112
2010-12-29 06:35:32,15.8,13.0,2.8,0.0,5.7,111
2010-12-29 06:40:32,15.9,12.8,3.1,0.0,13.2,111
2010-12-29 06:45:32,15.9,12.7,3.3,0.0,6.7,111
2010-12-29 06:50:32,16.4,12.4,4.1,0.0,2.7,112
2010-12-29 06:55:32,15.8,12.1,3.7,0.0,3.4,111
2010-12-29 07:00:32,15.8,12.0,3.8,0.0,2.5,112
2010-12-29 07:05:32,15.8,12.3,3.5,0.1,2.4,111
2010-12-29 07:10:32,15.8,12.5,3.2,0.2,2.3,112
2010-12-29 07:15:32,15.8,11.3,4.4,0.5,2.3,111
2010-12-29 07:20:32,15.8,8.7,7.1,1.0,2.3,112
2010-12-29 07:25:32,15.9,6.7,9.1,2.0,2.3,111
2010-12-29 07:30:32,15.9,5.6,10.3,3.8,2.9,112
2010-12-29 07:35:32,15.9,6.1,9.8,6.2,3.6,111
2010-12-29 07:40:32,15.9,6.1,9.8,9.8,3.1,112
2010-12-29 07:45:32,15.9,6.3,9.6,15.2,4.9,111
2010-12-29 07:50:33,15.9,5.7,10.2,19.9,2.9,111
2010-12-29 07:55:33,15.9,5.6,10.3,23.9,2.5,112
2010-12-29 08:00:33,15.8,5.7,10.1,25.9,2.4,111
2010-12-29 08:05:33,15.9,5.7,10.2,27.2,2.3,112
2010-12-29 08:10:33,16.0,5.8,10.2,28.1,2.3,112
2010-12-29 08:15:33,16.0,5.7,10.3,29.1,2.3,111
2010-12-29 08:20:33,16.1,5.8,10.3,29.8,2.3,112
2010-12-29 08:25:33,16.1,5.7,10.4,30.5,2.4,112
2010-12-29 08:30:33,16.1,5.8,10.3,31.1,2.4,111
2010-12-29 08:35:33,16.1,5.8,10.3,31.4,2.4,112
2010-12-29 08:40:33,16.2,6.0,10.2,31.5,2.5,112
2010-12-29 08:45:33,16.2,6.2,10.0,31.4,2.5,111
2010-12-29 08:50:33,16.3,6.2,10.0,31.5,2.8,111
2010-12-29 08:55:33,16.3,6.2,10.1,31.6,4.9,111
2010-12-29 09:00:33,16.3,9.2,7.1,31.7,9.1,112
2010-12-29 09:05:33,16.3,9.3,7.0,31.7,3.1,111
2010-12-29 09:10:33,16.3,6.3,10.0,31.9,2.6,111
2010-12-29 09:15:33,16.2,5.6,10.6,32.1,2.4,112
2010-12-29 09:20:33,16.2,5.6,10.6,32.2,2.5,112
2010-12-29 09:25:33,16.3,6.3,10.0,32.1,3.3,111
2010-12-29 09:30:33,16.2,6.7,9.5,32.0,2.3,111
2010-12-29 09:35:33,16.3,6.5,9.8,32.1,2.3,112
2010-12-29 09:40:33,16.5,6.6,9.9,32.2,2.3,111
2010-12-29 09:45:33,16.7,6.6,10.1,32.2,2.3,112
2010-12-29 09:50:33,16.8,7.0,9.8,32.2,2.4,111
2010-12-29 09:55:33,16.8,6.7,10.2,32.2,2.5,112
2010-12-29 10:00:33,16.9,6.6,10.2,32.2,2.4,111
2010-12-29 10:05:33,16.9,6.6,10.3,32.2,2.3,112
2010-12-29 10:10:33,16.9,6.7,10.2,32.3,2.3,111
2010-12-29 10:15:33,17.1,6.8,10.3,32.3,2.1,112
2010-12-29 10:20:33,17.2,6.6,10.6,32.3,2.0,111
2010-12-29 10:25:33,17.3,6.8,10.5,32.3,2.1,112
2010-12-29 10:30:33,17.4,6.8,10.6,32.4,2.2,111
2010-12-29 10:35:33,17.4,6.8,10.6,32.3,2.3,111
2010-12-29 10:40:33,17.5,6.6,10.9,32.4,2.3,112
2010-12-29 10:45:33,17.5,6.6,10.9,32.4,2.3,111
2010-12-29 10:50:33,17.5,6.5,11.0,32.4,2.3,111
2010-12-29 10:55:33,17.4,7.0,10.5,32.4,2.3,112
2010-12-29 11:00:33,17.6,6.9,10.7,32.4,2.3,111
2010-12-29 11:05:33,17.7,6.8,10.9,32.4,2.4,112
2010-12-29 11:10:33,17.8,6.7,11.1,32.4,2.5,111
2010-12-29 11:15:33,17.8,6.6,11.2,32.4,2.5,112
2010-12-29 11:20:33,17.8,6.9,10.9,32.4,2.4,111
2010-12-29 11:25:33,17.8,6.8,11.0,32.5,2.4,112
2010-12-29 11:30:33,17.9,7.4,10.5,32.5,2.6,111
2010-12-29 11:35:33,18.3,7.5,10.8,32.5,2.3,111
2010-12-29 11:40:33,18.4,7.1,11.3,32.4,2.3,112
2010-12-29 11:45:33,18.4,6.9,11.5,32.4,2.3,111
2010-12-29 11:50:33,18.2,6.6,11.6,32.4,2.3,112
2010-12-29 11:55:33,18.0,6.6,11.4,32.3,2.5,111
2010-12-29 12:00:33,17.8,6.7,11.2,32.3,2.6,112
2010-12-29 12:05:33,17.7,6.9,10.8,32.3,2.5,111
2010-12-29 12:10:33,17.6,6.8,10.8,32.3,2.4,111
2010-12-29 12:15:33,17.5,6.8,10.7,32.3,2.3,111
2010-12-29 12:20:33,17.5,6.6,10.9,32.3,2.3,112
2010-12-29 12:25:33,17.4,6.6,10.9,32.3,2.3,111
2010-12-29 12:30:33,17.4,6.6,10.8,32.3,2.3,111
2010-12-29 12:35:33,17.4,6.5,10.9,32.3,2.3,112
2010-12-29 12:40:33,17.4,6.3,11.1,32.3,2.3,111
2010-12-29 12:45:33,17.3,6.8,10.5,32.3,2.3,112
2010-12-29 12:50:33,17.3,6.6,10.7,32.3,2.3,111
2010-12-29 12:55:33,17.3,6.8,10.5,32.3,2.3,111
2010-12-29 13:00:33,17.6,6.7,11.0,32.3,2.3,111
2010-12-29 13:05:33,17.3,6.8,10.5,32.3,2.3,112
2010-12-29 13:10:33,17.3,6.7,10.5,32.2,2.3,111
2010-12-29 13:15:33,17.3,6.8,10.5,32.2,2.3,112
2010-12-29 13:20:33,17.3,6.8,10.4,32.3,2.3,111
2010-12-29 13:25:33,17.3,6.7,10.6,32.3,2.3,111
2010-12-29 13:30:33,17.3,6.6,10.7,32.3,2.3,112
2010-12-29 13:35:33,17.3,6.5,10.9,32.3,2.3,112
2010-12-29 13:40:33,17.3,6.6,10.7,32.3,2.3,111
2010-12-29 13:45:33,17.3,6.4,10.9,32.3,2.3,112
2010-12-29 13:50:33,17.4,6.7,10.7,32.3,2.3,111
2010-12-29 13:55:33,17.4,6.7,10.7,32.3,2.3,111
2010-12-29 14:00:33,17.5,6.7,10.8,32.2,2.3,111
2010-12-29 14:05:33,17.5,6.8,10.7,32.2,2.3,112
2010-12-29 14:10:33,17.5,6.7,10.8,32.2,2.3,111
2010-12-29 14:15:33,17.5,6.9,10.7,32.2,2.3,112
2010-12-29 14:20:33,17.6,7.0,10.6,32.2,2.3,111
2010-12-29 14:25:33,17.6,7.0,10.6,32.2,2.3,111
2010-12-29 14:30:33,17.6,6.7,10.9,32.1,2.4,112
2010-12-29 14:35:33,17.6,6.7,10.9,32.0,2.3,111
2010-12-29 14:40:33,17.5,6.8,10.7,32.0,2.3,111
2010-12-29 14:45:33,17.4,6.7,10.7,32.0,2.3,111
2010-12-29 14:50:33,17.3,6.4,10.9,32.0,2.3,112
2010-12-29 14:55:33,17.2,6.1,11.1,32.0,3.2,111
2010-12-29 15:00:33,17.0,6.2,10.8,31.9,2.8,112
2010-12-29 15:05:33,16.9,6.2,10.6,31.8,2.6,111
2010-12-29 15:10:33,16.8,6.1,10.7,31.7,2.4,112
2010-12-29 15:15:33,16.8,6.2,10.6,31.6,2.4,111
2010-12-29 15:20:33,16.8,6.0,10.8,31.5,2.6,112
2010-12-29 15:25:33,16.8,5.9,10.9,31.4,2.7,111
2010-12-29 15:30:33,16.7,5.9,10.8,31.2,3.0,112
2010-12-29 15:35:33,16.7,5.9,10.8,31.1,2.7,111
2010-12-29 15:40:33,16.6,6.0,10.6,30.9,2.7,112
2010-12-29 15:45:33,16.6,5.7,10.9,30.5,2.7,111
2010-12-29 15:50:33,16.5,6.1,10.5,29.8,2.4,112
2010-12-29 15:55:33,16.5,6.3,10.2,28.9,2.3,111
2010-12-29 16:00:33,16.5,6.1,10.4,28.0,2.3,112
2010-12-29 16:05:33,16.5,6.3,10.2,26.3,2.3,111
2010-12-29 16:10:33,16.6,5.8,10.8,24.7,3.0,112
2010-12-29 16:15:33,16.5,5.7,10.8,22.5,3.0,112
2010-12-29 16:20:33,16.3,5.7,10.7,19.7,2.7,111
2010-12-29 16:25:33,16.3,6.1,10.2,16.4,2.4,112
2010-12-29 16:30:33,16.3,6.1,10.2,11.3,2.3,111
2010-12-29 16:35:33,16.3,6.0,10.4,7.4,2.5,111
2010-12-29 16:40:33,16.3,5.7,10.6,4.6,2.5,112
2010-12-29 16:45:33,16.3,5.9,10.3,2.9,2.4,112
2010-12-29 16:50:33,16.2,5.9,10.3,1.5,2.4,111
2010-12-29 16:55:33,16.2,5.9,10.3,0.9,2.4,112
2010-12-29 17:00:33,16.2,5.9,10.4,0.5,2.3,111
2010-12-29 17:05:33,16.2,5.8,10.4,0.2,2.4,111
2010-12-29 17:10:33,16.2,5.9,10.3,0.1,2.5,112
2010-12-29 17:15:33,16.2,6.1,10.1,0.0,2.3,112
2010-12-29 17:20:33,16.3,6.1,10.2,0.0,2.3,112
2010-12-29 17:25:33,16.3,5.9,10.4,0.0,2.3,111
2010-12-29 17:30:33,16.3,6.0,10.3,0.0,2.3,112
2010-12-29 17:35:33,16.3,5.7,10.5,0.0,2.3,111
2010-12-29 17:40:33,16.2,5.4,10.8,0.0,2.3,112
2010-12-29 17:45:33,16.1,5.5,10.6,0.0,2.3,112
2010-12-29 17:50:33,16.1,5.7,10.4,0.0,2.3,112
2010-12-29 17:55:33,16.0,5.6,10.5,0.0,2.4,111
2010-12-29 18:00:33,16.1,5.7,10.4,0.0,2.3,112
2010-12-29 18:05:33,16.1,5.6,10.5,0.0,2.3,112
2010-12-29 18:10:33,16.1,5.8,10.3,0.0,2.3,111
2010-12-29 18:15:33,16.1,5.8,10.4,0.0,2.3,112
2010-12-29 18:20:33,16.2,5.8,10.3,0.0,2.3,111
2010-12-29 18:25:33,16.2,5.9,10.3,0.0,2.3,112
2010-12-29 18:30:33,16.3,5.8,10.5,0.0,2.3,112
2010-12-29 18:35:33,16.3,5.7,10.5,0.0,2.3,111
2010-12-29 18:40:33,16.3,5.9,10.4,0.0,2.3,112
2010-12-29 18:45:33,16.3,5.6,10.7,0.0,2.3,112
2010-12-29 18:50:33,16.3,5.6,10.7,0.0,2.3,111
2010-12-29 18:55:33,16.2,5.5,10.7,0.0,2.3,111
2010-12-29 19:00:33,16.2,5.6,10.6,0.0,2.3,112
2010-12-29 19:05:33,16.1,5.2,10.9,0.0,2.3,112
2010-12-29 19:10:33,16.0,5.2,10.8,0.0,2.3,111
2010-12-29 19:15:33,15.9,5.3,10.6,0.0,2.3,112
2010-12-29 19:20:33,15.8,5.3,10.5,0.0,2.3,112
2010-12-29 19:25:33,15.8,5.6,10.2,0.0,2.3,111
2010-12-29 19:30:33,15.9,5.9,10.1,0.0,2.4,112
2010-12-29 19:35:33,16.0,5.6,10.5,0.0,2.3,111
2010-12-29 19:40:33,16.1,5.7,10.4,0.0,2.3,112
2010-12-29 19:45:33,16.1,5.4,10.6,0.0,2.3,111
2010-12-29 19:50:33,16.0,5.3,10.7,0.0,2.3,112
2010-12-29 19:55:33,16.0,5.3,10.7,0.0,2.3,112
2010-12-29 20:00:33,16.0,5.5,10.5,0.0,2.4,111
2010-12-29 20:05:33,16.0,5.7,10.3,0.0,2.3,112
2010-12-29 20:10:33,16.1,5.5,10.6,0.0,2.2,111
2010-12-29 20:15:33,16.1,5.3,10.7,0.0,2.3,112
2010-12-29 20:20:33,16.1,5.4,10.6,0.0,2.3,111
2010-12-29 20:25:33,16.0,5.5,10.5,0.0,2.3,112
2010-12-29 20:30:33,16.0,5.4,10.7,0.0,2.5,111
2010-12-29 20:35:33,16.0,5.3,10.7,0.0,2.3,112
2010-12-29 20:40:33,15.7,5.2,10.5,0.0,2.3,112
2010-12-29 20:45:33,15.9,4.8,11.1,0.0,2.3,111
2010-12-29 20:50:33,15.8,4.8,11.0,0.0,2.3,112
2010-12-29 20:55:33,15.7,4.9,10.7,0.0,2.3,112
2010-12-29 21:00:33,15.6,4.8,10.8,0.0,2.3,112
2010-12-29 21:05:33,15.5,4.7,10.8,0.0,2.3,111
2010-12-29 21:10:33,15.5,3.8,11.7,0.0,2.3,111
2010-12-29 21:15:33,15.4,2.7,12.7,0.0,2.3,112
2010-12-29 21:20:33,15.4,4.3,11.1,0.0,2.3,111
2010-12-29 21:25:33,15.5,5.4,10.1,0.0,2.3,112
2010-12-29 21:30:33,15.7,5.0,10.7,0.0,2.3,112
2010-12-29 21:35:33,15.7,4.6,11.2,0.0,2.3,111
2010-12-29 21:40:33,15.6,4.3,11.3,0.0,2.3,112
2010-12-29 21:45:33,15.5,4.6,10.9,0.0,2.3,112
2010-12-29 21:50:33,15.4,4.5,11.0,0.0,2.3,111
2010-12-29 21:55:33,15.4,4.3,11.1,0.0,2.3,111
2010-12-29 22:00:33,15.3,4.1,11.2,0.0,2.3,112
2010-12-29 22:05:33,15.3,4.2,11.2,0.0,2.3,112
2010-12-29 22:10:33,15.3,4.5,10.9,0.0,2.3,112
2010-12-29 22:15:33,15.4,4.5,10.8,0.0,2.3,111
2010-12-29 22:20:33,15.4,4.2,11.2,0.0,2.3,112
2010-12-29 22:25:33,15.4,4.0,11.3,0.0,2.3,111
2010-12-29 22:30:33,15.3,4.4,10.8,0.0,2.3,112
2010-12-29 22:35:33,15.3,4.0,11.3,0.0,2.3,111
2010-12-29 22:40:33,15.3,4.3,11.0,0.0,2.3,112
2010-12-29 22:45:33,15.3,4.3,11.0,0.0,2.3,112
2010-12-29 22:50:33,15.3,4.1,11.1,0.0,2.3,112
2010-12-29 22:55:34,14.9,4.0,11.0,0.0,2.3,111
2010-12-29 23:00:34,15.2,4.2,11.0,0.0,2.3,112
2010-12-29 23:05:34,15.3,4.8,10.5,0.0,2.3,111
2010-12-29 23:10:34,15.4,4.3,11.0,0.0,2.3,112
2010-12-29 23:15:34,15.4,4.3,11.1,0.0,2.3,111
2010-12-29 23:20:34,15.3,4.1,11.2,0.0,2.3,112
2010-12-29 23:25:34,15.2,3.9,11.3,0.0,2.3,111
2010-12-29 23:30:34,15.1,4.3,10.8,0.0,2.3,112
2010-12-29 23:35:34,15.2,4.5,10.7,0.0,2.3,112
2010-12-29 23:40:34,15.3,4.3,11.0,0.0,2.3,111
2010-12-29 23:45:34,15.3,4.1,11.2,0.0,2.3,112
2010-12-29 23:50:34,15.2,4.3,10.9,0.0,2.3,112
2010-12-29 23:55:34,15.2,4.3,10.9,0.0,2.3,111
